Location: Saluda
(35.2377°N, 82.3468°W)
Time: 21:48:36
(UTC+00:00)

Tiros 1 - Pass Details

Date: 10 October 2022
Orbit: 629 x 662 km, 48.4° (Epoch: 08 December)

Event Time Altitude Azimuth Distance (km) Brightness Sun altitude
Rises 00:47:50 0° 213° (SSW) 2,963 10.9 -22.4°
Reaches altitude 10° 00:50:15 10° 207° (SSW) 2,059 9.9 -22.9°
Enters shadow 00:53:27 35° 176° (S) 1,065 8.1 -23.5°
